STARLINK-11318, 61252

Orbit data source: Space-Track

STARLINK-11318, 61252 is a payload satellite owned by SpaceX/Seattle (US) in LEO that was launched on Wed, 25 Sep 2024 UTC via an FALCON 9 launch vehicle from the Air Force Western Test Range (AFWTR). Payload-class satellites include a variety of spacecraft equipped with specific instruments for various scientific and technological missions. These include communications satellites like Starlink; space stations such as the ISS; scientific satellites like the Hubble; Earth observation satellites from companies like Planet Labs, Umbra, and HawkEye 360; GPS; miniature CubeSats for education and research; and military/defense satellites.

Not visible in the next 10 days
Identifier
61252, 2024-175K
Orbit
LEO
Last TLE update
10 hours ago
Origin
Manufacturer
SpaceX/Seattle
Mission
Operational Commercial Communications
Bus & Motor
STARLINK V2M, Unknown motor
Mass
730 kg wet, ~700 kg dry
Launch date (UTC)
2024-09-25 (9 months ago)
Launch vehicle
FALCON 9
Launch site
Air Force Western Test Range (AFWTR)
Object type
Payload
Rocket body
Debris
Shape & HBR
Box + 2 Pan, 29 m
Radar Cross Section
36.964 m², Large (>1 m²)

Expand to show TLE details & history

TLE from 10 hours ago
0 STARLINK-11318
1 61252U 24175K   25183.79120482  .00000461  00000-0  86662-5 0  9991
2 61252  53.1590 208.4253 0001115  84.4681 275.6464 15.69709802 45284
Epoch: 2025-07-02T18:59Z
TLE epoch observation values (Epoch: 2025-07-02T18:59:20.096Z)
Latitude
-0.00002°
Longitude
2.52431°
Altitude
360.568 km
Speed
7.694 km/s
True Right ascension
13h 53m 42s
True Declination
0° 00' 00"
Sunlit
Object was in daylight at epoch
Visualization orbit readout
Latitude
52.75324°
Longitude
102.07685°
Altitude
365.416 km
Speed
7.697 km/s
Apparent Right ascension
00h 59m 02s
Apparent Declination
15° 00' 07"
Sunlit
Object is in daylight
Visualization observer readout
Local Sidereal Time
16:19:28
Azimuth
51.192° ENE
Elevation
-18.002°
Doppler factor
1
Orbital elements
Apogee altitude
360.739 km
Perigee altitude
359.237 km
Semi-major axis
6,738.125 km
Eccentricity
0.00011
Inclination
53.159°
RAAN
208.4253°
Arg. of periapsis
84.4681°
True anomaly
Unknown
Mean anomaly
275.6464°
Eccentric anomaly
Unknown
Mean motion
3.92405 °/min
Orbital period
91.74 mins
BSTAR
0.0000086662
Loading maneuver chart data...
Loading SW <> Apogee altitude chart data...
Loading historical data...
Loading historical data...
Loading historical data...
Loading historical data...
Loading historical data...
Loading historical data...
Loading historical data...

STARLINK-11318 Visibility

Observer location: undefined°, undefined°

STARLINK-11318 is likely not visible in the next few days
Span
Click to sort rows by Start time (UTC) header in descending order
Start Az.
Max El. time (UTC)
Max El. Az.
Max El.
End time (UTC)
End Az.
|